TimeCDT,TemperatureF,Dew PointF,Humidity,Sea Level PressureIn,VisibilityMPH,Wind Direction,Wind SpeedMPH,Gust SpeedMPH,PrecipitationIn,Events,Conditions,WindDirDegrees,DateUTC
12:51 AM,60.1,57.0,90,30.02,9.0,SW,6.9,-,N/A,,Mostly Cloudy,230,2012-10-04 05:51:00
1:51 AM,59.0,55.9,90,30.02,10.0,SW,4.6,-,N/A,,Overcast,220,2012-10-04 06:51:00
2:51 AM,57.9,55.0,90,30.02,10.0,SW,5.8,-,0.01,,Overcast,220,2012-10-04 07:51:00
3:51 AM,57.9,55.0,90,30.03,10.0,SSW,5.8,-,N/A,,Overcast,210,2012-10-04 08:51:00
4:51 AM,57.9,54.0,87,30.03,10.0,SSW,5.8,-,N/A,,Overcast,210,2012-10-04 09:51:00
5:51 AM,57.9,53.1,84,30.03,10.0,SSW,10.4,-,N/A,,Partly Cloudy,210,2012-10-04 10:51:00
6:51 AM,57.0,53.1,87,30.03,10.0,SW,8.1,-,N/A,,Partly Cloudy,220,2012-10-04 11:51:00
7:51 AM,57.9,54.0,87,30.03,10.0,SSW,10.4,-,N/A,,Clear,210,2012-10-04 12:51:00
8:51 AM,61.0,55.0,81,30.03,10.0,SSW,9.2,-,N/A,,Partly Cloudy,210,2012-10-04 13:51:00
9:51 AM,64.9,55.9,73,30.02,10.0,SSW,12.7,-,N/A,,Partly Cloudy,210,2012-10-04 14:51:00
10:51 AM,69.8,55.4,60,30.01,10.0,SSW,13.8,20.7,N/A,,Partly Cloudy,210,2012-10-04 15:51:00
11:51 AM,73.0,55.9,55,29.99,10.0,SSW,13.8,19.6,N/A,,Partly Cloudy,210,2012-10-04 16:51:00
12:51 PM,75.0,55.9,51,29.96,10.0,SSW,19.6,25.3,N/A,,Partly Cloudy,200,2012-10-04 17:51:00
1:51 PM,77.0,55.9,48,29.96,10.0,SW,19.6,29.9,N/A,,Mostly Cloudy,230,2012-10-04 18:51:00
2:51 PM,73.9,55.9,53,29.97,10.0,SW,16.1,27.6,N/A,,Overcast,230,2012-10-04 19:51:00
3:51 PM,69.1,59.0,70,29.98,10.0,West,11.5,18.4,0.03,,Overcast,260,2012-10-04 20:51:00
4:51 PM,63.0,52.0,67,30.03,10.0,West,18.4,-,N/A,,Overcast,270,2012-10-04 21:51:00
5:51 PM,55.9,50.0,80,30.06,9.0,West,16.1,27.6,0.00,Rain,Light Rain,270,2012-10-04 22:51:00
6:51 PM,53.1,50.0,89,30.06,10.0,West,11.5,-,0.08,,Mostly Cloudy,260,2012-10-04 23:51:00
7:51 PM,53.1,48.0,83,30.06,10.0,West,13.8,-,N/A,,Mostly Cloudy,270,2012-10-05 00:51:00
8:51 PM,53.6,48.2,82,30.06,10.0,West,13.8,-,N/A,,Overcast,280,2012-10-05 01:51:00
9:51 PM,53.6,44.6,72,30.07,10.0,West,12.7,-,N/A,,Overcast,280,2012-10-05 02:51:00
10:51 PM,53.1,43.0,69,30.09,10.0,West,10.4,-,N/A,,Partly Cloudy,270,2012-10-05 03:51:00
11:51 PM,51.1,39.9,66,30.11,10.0,West,9.2,-,N/A,,Partly Cloudy,280,2012-10-05 04:51:00